Terminal Aerodrome Forecast
Issued by NWS

Home | Current Version | Previous Version | Graphics & Text | Print | Product List | Glossary On
Versions: 1 2 3 4 5 6 7 8 9 10 11 12 13 14 15 16
779
FTUS43 KMPX 191500 AAB
TAFAXN
TAF AMD
KAXN 191500Z 1915/2012 26006KT P6SM SKC
     FM191900 19010KT P6SM SKC
     FM200300 17006KT P6SM SCT250
     FM201000 21008KT P6SM BKN100=

USA.gov is the U.S. government's official web portal to all federal, state and local government web resources and services.